CW4610 Weather Reports


Display with metric or nautical units.
time (UTC)temp
F
wind
direction
speed
MPH
gust
MPH
rain 1hr
in
rain 24hr
in
rain mn
in
humidity
%
barometer
mb
20260503195532 84 315 4.0 9.0 0.00 0.00 0.00 35 1012.4
20260503194517 84 0 4.0 8.0 0.00 0.00 0.00 33 1012.5
20260503193521 84 225 3.0 6.0 0.00 0.00 0.00 34 1012.5
20260503192519 83 180 3.0 5.0 0.00 0.00 0.00 32 1012.7
20260503191518 82 225 3.0 5.0 0.00 0.00 0.00 32 1012.9
20260503190519 81 225 4.0 5.0 0.00 0.00 0.00 31 1012.9
20260503185518 81 225 3.0 6.0 0.00 0.00 0.00 34 1013.0
20260503184518 80 225 3.0 6.0 0.00 0.00 0.00 39 1013.1
20260503183518 79 225 3.0 5.0 0.00 0.00 0.00 41 1013.2
20260503182539 78 225 2.0 4.0 0.00 0.00 0.00 42 1013.3
20260503181519 77 225 2.0 5.0 0.00 0.00 0.00 43 1013.4
20260503180520 76 315 1.0 3.0 0.00 0.00 0.00 46 1013.4
20260503175520 75 180 2.0 5.0 0.00 0.00 0.00 45 1013.5
20260503174521 74 293 2.0 5.0 0.00 0.00 0.00 48 1013.6
20260503173540 72 315 2.0 4.0 0.00 0.00 0.00 48 1013.7
20260503172555 70 248 1.0 3.0 0.00 0.00 0.00 47 1014.0
20260503171520 69 315 1.0 3.0 0.00 0.00 0.00 50 1014.0
20260503170520 67 45 1.0 3.0 0.00 0.00 0.00 53 1014.0
20260503150520 55 0 1.0 2.0 0.00 0.00 0.00 79 1015.1
20260503130540 49 0 2.0 3.0 0.00 0.00 0.00 86 1015.0
20260503110530 51 0 1.0 2.0 0.00 0.00 0.00 81 1014.9
20260503081518 56 23 3.0 5.0 0.00 0.00 0.00 71 1014.8
20260503080539 56 23 2.0 3.0 0.00 0.00 0.00 72 1014.8
20260503072616 58 45 1.0 2.0 0.00 0.00 0.00 68 1014.9
20260503071519 59 23 1.0 3.0 0.00 0.00 0.00 68 1014.7
20260503070559 59 68 1.0 2.0 0.00 0.00 0.00 66 1014.6
20260503054519 65 338 1.0 3.0 0.00 0.00 0.00 62 1014.2
20260503053600 65 23 2.0 3.0 0.00 0.00 0.00 60 1014.2
20260503052521 67 0 2.0 4.0 0.00 0.00 0.00 57 1014.1
20260503051539 68 0 2.0 3.0 0.00 0.00 0.00 52 1014.0
20260503050519 69 90 1.0 2.0 0.00 0.00 0.00 48 1014.0
20260503045529 70 0 1.0 2.0 0.00 0.00 0.00 45 1013.9
20260503044534 72 270 1.0 2.0 0.00 0.00 0.00 43 1013.7
20260503043533 73 45 2.0 6.0 0.00 0.00 0.00 37 1013.7
20260503042519 73 45 3.0 7.0 0.00 0.00 0.00 37 1013.6
20260503041520 73 45 3.0 6.0 0.00 0.00 0.00 36 1013.5
20260503040538 74 90 5.0 9.0 0.00 0.00 0.00 37 1013.4
20260503035519 74 90 5.0 8.0 0.00 0.00 0.00 36 1013.3
20260503034520 75 45 4.0 9.0 0.00 0.00 0.00 35 1013.3
20260503033519 76 315 0.0 1.0 0.00 0.00 0.00 35 1013.3
20260503032539 77 23 3.0 6.0 0.00 0.00 0.00 32 1013.0
20260503031540 77 23 5.0 9.0 0.00 0.00 0.00 32 1013.0
20260503030519 78 23 6.0 10.0 0.00 0.00 0.00 31 1012.9
20260503025540 78 23 6.0 12.0 0.00 0.00 0.00 31 1012.9
20260503024600 78 23 7.0 12.0 0.00 0.00 0.00 32 1012.9
20260503023519 78 23 7.0 12.0 0.00 0.00 0.00 32 1012.9
20260503022520 79 23 6.0 11.0 0.00 0.00 0.00 31 1012.8
20260503021541 79 0 7.0 11.0 0.00 0.00 0.00 31 1012.9
20260503020520 79 23 7.0 12.0 0.00 0.00 0.00 30 1012.9
20260503015551 80 23 5.0 11.0 0.00 0.00 0.00 30 1012.9
20260503014540 80 23 6.0 10.0 0.00 0.00 0.00 29 1012.9
20260503013519 80 23 6.0 14.0 0.00 0.00 0.00 30 1012.9
20260503012519 80 23 7.0 12.0 0.00 0.00 0.00 29 1013.0
20260503011520 80 23 6.0 11.0 0.00 0.00 0.00 30 1013.0
20260503010519 81 23 8.0 13.0 0.00 0.00 0.00 29 1013.0
20260503005519 81 23 5.0 9.0 0.00 0.00 0.00 30 1013.0
20260503004519 80 45 7.0 13.0 0.00 0.00 0.00 29 1013.1
20260503003519 81 23 10.0 15.0 0.00 0.00 0.00 29 1013.2
20260503002519 81 23 9.0 18.0 0.00 0.00 0.00 29 1013.3
20260503001539 81 23 10.0 15.0 0.00 0.00 0.00 29 1013.4
20260503000519 81 23 10.0 17.0 0.00 0.00 0.00 29 1013.4
20260502235539 81 23 9.0 15.0 0.00 0.00 0.00 29 1013.5
20260502234518 82 0 8.0 14.0 0.00 0.00 0.00 30 1013.6
20260502233519 81 23 8.0 15.0 0.00 0.00 0.00 30 1013.6
20260502232519 81 23 9.0 14.0 0.00 0.00 0.00 31 1013.9
20260502231519 81 23 8.0 14.0 0.00 0.00 0.00 31 1014.0
20260502230543 81 23 8.0 13.0 0.00 0.00 0.00 32 1014.1
20260502225519 81 45 9.0 17.0 0.00 0.00 0.00 32 1014.5
20260502224519 81 23 9.0 16.0 0.00 0.00 0.00 33 1014.5
20260502223519 81 23 8.0 16.0 0.00 0.00 0.00 34 1014.5
20260502222530 81 23 10.0 18.0 0.00 0.00 0.00 36 1014.6
20260502221540 81 23 9.0 14.0 0.00 0.00 0.00 36 1014.7
20260502220519 81 0 12.0 18.0 0.00 0.00 0.00 36 1014.7
20260502215519 81 0 9.0 16.0 0.00 0.00 0.00 35 1014.8
20260502214519 81 23 11.0 15.0 0.00 0.00 0.00 34 1014.9
20260502213519 81 23 9.0 13.0 0.00 0.00 0.00 35 1015.0
20260502212519 81 23 7.0 13.0 0.00 0.00 0.00 36 1015.0
20260502211519 81 23 8.0 16.0 0.00 0.00 0.00 34 1015.1
20260502210611 80 0 8.0 14.0 0.00 0.00 0.00 35 1015.1
20260502205518 80 23 9.0 14.0 0.00 0.00 0.00 37 1015.2
20260502204520 80 23 8.0 14.0 0.00 0.00 0.00 35 1015.4
20260502203518 80 0 6.0 13.0 0.00 0.00 0.00 37 1015.4
20260502202544 79 338 6.0 10.0 0.00 0.00 0.00 40 1015.5
20260502201519 79 0 7.0 10.0 0.00 0.00 0.00 40 1015.8
20260502200518 78 0 7.0 10.0 0.00 0.00 0.00 42 1015.8